Theta_e
311 315 319 320 320 318 317 317 316 316 316 316 315 315 315 317 319 321 324 325 327 330 327 326 325 325 329 334 337 336 335 332 332 330 330 330 331 331 331 331 331 330 332
307 309 311 311 312 314 316 316 315 315 314 314 315 315 315 316 318 319 320 323 325 328 326 327 325 325 323 328 332 328 325 328 331 326 324 321 322 322 323 326 328 328 329
304 306 308 309 310 310 311 312 312 312 313 312 314 313 313 313 314 315 317 319 323 326 324 325 325 324 322 321 323 323 323 323 325 328 324 316 315 318 325 325 326 326 329
304 305 306 307 308 309 309 309 309 309 313 312 312 310 309 308 311 312 316 316 320 322 323 322 324 324 322 320 321 324 323 322 320 323 326 326 324 319 317 323 325 325 327
303 304 305 306 308 309 308 308 307 307 309 309 311 311 309 309 311 312 313 315 317 319 321 319 320 320 321 320 320 321 320 320 320 321 323 323 323 321 319 316 320 322 324
303 304 304 305 304 305 306 308 307 307 308 308 310 311 310 309 309 310 311 313 315 316 317 317 316 318 318 317 317 318 323 323 324 323 324 323 322 321 320 318 319 318 321
301 302 302 302 302 303 305 306 306 306 307 307 307 308 308 308 308 309 311 312 312 313 313 314 313 313 316 316 316 317 316 316 316 320 320 320 319 319 319 318 317 316 317
299 300 301 301 302 304 305 305 305 304 306 305 305 305 305 305 307 308 310 311 312 312 312 312 312 312 312 313 314 315 314 315 314 314 314 315 317 318 317 316 314 311 314
299 300 302 302 303 304 304 304 304 304 304 304 303 303 304 304 304 306 307 308 312 311 312 309 309 311 312 311 311 311 309 311 309 309 309 310 311 312 313 313 313 311 308
299 300 301 302 303 303 304 303 303 302 303 303 302 303 303 304 304 305 305 306 310 309 307 307 309 310 310 309 309 308 308 307 306 306 305 305 306 308 310 311 311 311 309
298 299 300 301 301 302 301 301 301 302 302 303 303 303 303 303 304 304 305 307 309 308 306 307 308 309 308 307 307 306 305 304 304 304 303 304 305 305 307 309 308 308 309
298 298 299 300 300 300 300 301 301 301 303 303 304 303 303 304 305 306 307 309 307 307 306 307 307 306 306 306 305 304 304 303 303 304 303 303 305 305 305 307 307 306 307
298 298 299 298 299 299 300 301 301 302 303 303 304 303 303 304 306 308 306 306 305 305 305 304 304 304 304 304 303 302 302 302 303 303 304 304 305 304 304 304 305 307 306
297 298 297 298 298 300 299 300 300 301 302 302 304 303 304 305 304 304 304 304 304 303 302 301 301 302 302 303 302 301 301 301 302 302 303 305 305 305 306 304 305 306 306
298 298 297 297 297 298 299 299 299 300 301 302 303 303 306 304 303 302 302 302 301 301 301 301 301 301 302 303 302 301 300 300 301 302 303 305 307 307 308 304 306 306 305
298 298 298 297 297 297 298 298 298 301 302 303 303 305 303 302 301 300 300 300 300 300 300 300 300 299 301 300 302 304 301 302 301 301 303 304 307 306 306 305 305 305 304
297 297 296 296 296 296 297 296 299 301 302 303 304 302 301 300 299 300 299 299 299 300 299 299 299 299 299 299 300 303 302 301 301 301 302 302 303 303 301 302 301 301 302
297 297 297 296 296 296 297 299 300 301 303 301 300 300 299 299 299 299 298 299 299 299 299 298 298 298 299 299 299 301 302 301 301 301 302 302 301 301 300 299 298 298 298
298 298 297 295 295 296 298 299 300 302 300 299 298 298 299 298 298 298 298 298 298 299 299 299 299 299 301 298 298 300 300 300 300 302 302 303 301 299 299 300 298 297 297
297 295 294 295 295 297 299 298 299 299 297 298 298 299 299 298 298 299 298 300 299 299 300 300 300 301 300 297 297 300 301 300 300 302 301 300 300 298 298 300 298 295 295
294 295 294 294 296 298 298 297 298 297 298 299 299 300 299 298 299 300 301 301 301 301 300 300 300 301 300 300 297 298 303 301 300 299 298 298 296 296 296 297 298 296 297
293 295 293 294 297 299 298 298 296 298 300 300 299 298 298 299 300 301 299 300 300 298 298 298 298 299 300 299 298 297 298 301 300 298 298 297 294 294 295 297 294 295 297
294 295 293 295 298 299 300 296 298 299 299 298 296 296 297 297 297 297 296 296 297 298 298 298 296 296 298 299 298 297 298 299 300 299 297 295 295 295 296 295 295 296 297
293 293 294 295 297 298 298 298 299 300 298 296 296 296 294 295 296 295 294 293 294 294 296 296 297 297 298 297 299 302 302 300 300 300 299 297 296 296 297 298 298 298 297
294 295 295 297 297 298 298 299 299 298 295 295 295 295 295 294 294 294 293 293 293 292 294 296 297 298 297 296 294 297 299 300 298 298 299 298 298 296 296 296 296 296 296
295 296 298 297 297 298 297 297 297 296 294 294 293 293 292 293 293 292 294 293 293 292 292 293 296 297 293 293 293 293 292 293 294 298 296 295 295 294 294 294 294 295 295
Wind_Speed
4 5 4 4 6 6 6 6 7 7 4 3 3 3 4 4 5 6 9 10 10 11 13 9 11 10 13 13 12 7 8 5 4 2 0 5 5 6 4 3 3 3 3
6 6 6 6 5 4 6 7 6 6 4 3 3 3 3 3 3 5 8 9 11 11 10 9 9 11 11 14 8 6 3 1 5 4 1 2 3 2 3 3 2 3 3
6 4 5 5 5 6 6 6 6 6 4 5 3 3 3 3 4 7 7 9 10 10 10 11 10 8 9 10 8 5 6 5 2 4 5 3 4 2 0 2 2 2 2
3 3 4 4 5 5 6 6 6 6 6 6 3 2 2 2 3 4 5 8 8 9 10 11 9 9 6 8 8 7 5 2 4 2 3 2 3 3 3 1 2 2 2
2 2 4 5 4 5 6 5 5 7 6 7 5 3 3 3 4 5 7 8 8 8 8 9 11 9 6 7 10 8 6 4 2 1 2 1 1 3 3 4 2 0 1
3 4 4 4 4 5 5 5 6 5 5 5 6 5 6 7 6 5 6 6 7 7 7 8 8 7 7 6 6 10 7 3 3 2 1 1 0 1 1 2 2 2 2
3 5 6 6 6 7 7 6 5 6 6 5 6 6 7 7 8 8 7 11 8 8 8 7 8 6 6 7 5 5 5 7 6 6 3 1 1 1 2 3 4 3 1
4 5 5 4 6 6 6 6 6 6 6 6 7 6 7 5 7 9 8 7 9 8 8 7 7 7 6 7 6 2 3 4 4 6 6 5 3 2 2 2 2 4 3
5 6 8 7 7 6 7 7 8 8 8 7 6 7 8 10 11 12 9 8 10 8 8 8 8 7 5 5 5 3 3 2 3 3 3 2 3 4 3 2 2 2 3
6 7 6 7 6 7 7 8 8 10 9 9 6 7 10 12 12 10 10 9 10 7 7 8 7 6 5 5 5 3 3 2 2 3 4 3 3 3 2 1 2 2 1
6 4 5 6 7 8 9 10 10 9 10 11 9 10 11 12 11 9 9 9 5 5 7 7 7 6 6 6 5 4 6 5 5 5 4 4 3 2 2 1 1 2 2
3 5 6 7 7 9 10 13 12 10 13 12 11 11 11 11 11 10 10 5 5 4 5 6 5 6 7 6 6 6 6 6 6 5 4 6 4 4 3 2 2 2 3
6 6 7 7 7 9 13 13 12 13 13 13 11 12 11 12 12 8 6 5 6 5 5 6 7 6 6 6 6 5 5 4 5 5 6 5 5 6 4 3 3 2 2
7 6 6 7 8 11 11 10 13 12 13 13 11 11 10 8 8 6 6 6 6 6 6 7 7 7 6 6 5 4 4 4 3 3 3 5 5 5 5 4 4 2 0
8 6 6 7 9 11 9 10 11 12 12 12 10 9 4 5 6 7 7 6 6 5 6 6 6 6 5 5 6 4 5 4 5 5 5 6 3 5 8 3 4 2 2
7 7 7 8 11 11 10 12 12 13 12 11 9 5 6 6 7 6 6 6 6 6 6 7 6 5 4 10 8 6 3 4 4 4 6 7 11 11 14 16 19 12 4
6 7 7 8 10 10 10 11 13 12 11 8 6 7 6 7 7 5 5 5 5 4 5 5 5 5 4 8 5 8 5 4 4 4 5 5 6 7 5 13 17 19 19
7 7 7 9 8 7 9 10 11 10 7 7 7 7 7 7 5 5 5 4 3 5 4 5 5 4 4 8 7 8 5 4 4 4 4 5 6 6 6 8 10 11 12
7 6 6 8 6 9 8 9 10 7 7 8 8 8 6 5 5 6 6 4 3 4 5 3 5 6 6 10 8 6 4 4 5 5 4 5 4 6 6 8 10 9 9
6 6 7 6 8 8 7 7 8 6 7 7 6 5 5 5 6 6 5 3 3 3 3 4 5 9 6 12 9 7 3 5 3 5 6 9 4 6 8 7 6 10 8
8 7 6 6 9 7 6 6 5 6 5 4 4 6 6 7 5 4 3 4 4 5 5 6 6 7 9 9 11 8 5 2 4 5 5 6 9 8 10 9 8 8 5
11 8 6 9 8 6 4 4 6 4 3 4 5 6 5 4 4 4 5 5 5 5 5 5 6 6 6 10 9 11 11 8 7 6 6 7 13 13 11 8 9 8 6
10 5 7 9 8 5 4 6 3 4 5 6 6 6 5 6 8 7 6 4 5 6 4 5 5 5 5 5 9 11 12 13 8 7 8 9 11 10 9 11 9 7 6
8 7 7 6 4 6 7 6 5 5 5 6 6 5 6 5 4 4 4 4 3 3 3 5 5 6 7 6 5 5 5 8 7 7 7 8 9 10 8 7 7 5 5
7 6 5 3 6 8 9 7 6 5 5 5 5 6 4 5 5 4 3 4 3 3 3 4 5 5 7 5 4 6 4 4 4 4 4 5 5 5 5 6 6 5 5
6 5 5 6 9 9 8 7 6 6 5 6 5 4 4 4 5 4 4 10 13 14 8 9 5 5 6 8 11 10 10 9 8 6 6 6 5 5 5 5 5 5 6
Wind_Direction
67 76 87 67 39 34 28 22 11 353 355 330 333 322 328 328 346 344 329 335 337 339 339 336 331 327 318 279 252 238 205 185 167 211 358 257 233 227 222 232 248 272 356
62 58 52 43 44 24 11 8 354 344 328 321 292 280 295 299 303 316 322 333 334 330 337 334 331 334 331 311 255 214 203 100 164 171 129 254 302 251 218 176 206 46 49
106 66 56 38 21 19 356 349 346 332 325 329 322 327 313 315 340 341 331 329 321 321 333 332 333 337 338 329 300 292 259 147 207 188 147 150 225 304 275 89 67 99 124
87 56 29 10 344 328 331 340 336 329 311 333 333 333 317 297 268 283 281 295 300 318 327 328 336 335 342 326 326 326 295 290 171 159 215 220 159 188 297 19 116 119 343
115 68 4 346 338 338 320 310 320 318 333 328 297 294 300 255 277 293 301 305 309 310 317 329 327 341 345 346 326 321 315 318 308 290 149 155 168 179 170 265 260 156 252
40 11 347 341 313 310 329 340 348 338 343 348 340 311 292 294 297 292 298 294 302 301 305 316 322 322 339 343 340 326 318 329 303 340 64 180 314 111 230 227 268 287 5
359 342 336 340 345 341 331 328 348 324 318 324 325 316 302 297 288 292 288 296 294 293 295 310 315 324 331 329 340 329 349 346 334 331 308 146 135 37 316 301 285 281 138
320 298 295 323 339 320 323 338 317 306 309 308 301 299 295 293 288 279 278 279 279 280 296 301 306 318 338 341 336 320 346 349 349 358 355 330 7 18 316 292 306 299 246
318 324 350 342 325 323 325 308 297 299 301 298 299 301 297 300 295 286 283 284 289 286 293 308 306 315 334 339 339 347 2 21 13 18 4 336 8 358 328 278 231 222 267
324 341 333 325 315 317 301 302 297 287 287 287 281 293 298 294 292 292 290 286 281 281 296 302 312 320 349 2 349 12 2 53 48 36 39 8 26 334 307 283 252 218 245
304 298 309 309 308 301 303 301 300 297 304 307 289 296 295 296 293 289 284 281 293 292 300 311 320 344 8 15 5 10 26 35 50 31 30 28 20 342 6 2 269 216 213
279 273 298 314 310 312 315 312 309 307 313 307 291 291 296 300 299 294 296 308 304 307 318 326 1 12 17 18 24 21 23 24 37 39 44 35 6 16 21 342 316 227 217
280 302 316 313 309 313 311 310 307 307 309 306 293 306 304 312 304 311 1 343 338 339 5 19 26 25 24 20 25 16 25 26 30 25 21 17 15 13 14 348 327 293 228
275 291 297 303 301 305 305 306 311 310 304 308 306 309 328 4 6 360 1 3 10 24 20 32 27 19 16 17 9 0 15 16 20 29 23 3 12 356 345 348 327 303 246
270 288 303 298 297 309 304 307 311 306 308 310 303 307 327 1 3 12 17 16 32 23 28 29 24 14 17 14 2 353 355 352 12 4 10 358 12 30 42 27 351 350 77
278 293 289 294 310 312 305 313 312 310 312 304 309 355 20 20 24 21 22 21 24 23 24 22 13 1 356 350 0 22 10 5 3 358 7 20 61 70 69 66 59 46 45
287 277 289 293 308 306 308 308 313 309 310 316 25 25 27 38 32 20 19 15 15 11 17 6 347 336 336 353 357 29 30 23 19 16 16 45 51 62 52 60 60 52 50
284 292 294 306 298 295 308 314 312 312 333 20 24 33 43 36 17 10 10 3 349 360 344 346 1 359 351 7 20 24 10 22 35 30 34 54 58 48 68 68 63 53 49
271 285 296 292 302 311 318 316 324 4 22 31 38 36 38 22 5 3 355 353 350 352 4 2 17 20 11 10 23 34 23 35 43 43 44 86 79 50 34 75 74 66 51
283 298 303 302 312 314 321 322 339 21 38 41 47 34 14 357 345 344 346 341 3 6 6 19 15 21 8 10 14 31 14 54 40 43 46 46 67 61 40 62 59 64 48
313 301 311 310 304 318 321 325 34 43 39 44 10 358 350 340 341 342 3 17 39 23 23 26 19 35 24 18 20 24 62 44 68 50 39 34 55 68 63 62 75 79 65
309 311 323 315 320 309 305 54 58 47 30 7 351 354 358 2 1 29 28 18 17 21 17 24 31 26 20 20 26 40 49 44 73 64 56 54 56 59 60 72 76 65 52
313 330 324 321 318 320 99 88 61 27 15 12 8 2 5 16 19 32 25 18 38 48 15 17 36 28 15 18 17 43 47 54 68 71 67 59 57 59 64 56 54 53 62
336 329 321 326 24 57 68 63 45 21 12 23 21 18 29 17 16 16 32 42 46 30 358 34 38 32 31 19 2 31 40 44 54 52 60 62 60 65 58 53 46 60 61
325 329 331 18 65 63 59 45 27 10 39 41 24 28 23 20 15 27 12 12 33 20 16 39 25 42 36 11 21 52 47 54 58 68 60 59 52 50 48 51 54 57 61
340 346 44 69 69 67 53 38 26 33 36 37 26 21 12 2 28 7 21 43 58 53 58 43 22 52 43 47 50 43 44 46 43 61 55 60 55 55 50 54 58 59 67